Lid_Strength_Index
4 3 2 1 1 1 2 2 1 1 0 -0 -1 -1 -1 -1 -1 -1 -1 -1 -1 -1 -1 -1 -1 -1 -1 -1 -2 -2 -1 -1 -2 -2 -2 -1 -1 -1 -1 -1 -1 -1 -1
4 3 2 2 2 1 2 2 2 2 2 1 1 0 -0 -1 -1 -1 -1 -1 -1 -1 -1 -2 -1 -1 -1 -2 -2 -2 -2 -1 -1 -1 -1 -1 -2 -1 -1 -1 -2 -1 -1
4 4 4 2 2 1 1 1 2 3 2 2 2 1 1 1 0 -1 -1 -1 -1 -1 -1 -1 -2 -1 -1 -1 -1 -1 -2 -1 -1 -1 -1 -0 -0 -1 -1 -1 -1 -2 -1
4 4 4 2 2 1 1 0 0 1 2 2 2 3 2 2 2 1 0 -1 -1 -1 -1 -1 -1 -1 -1 -1 -1 -2 -2 -1 -1 -0 -0 -1 -0 -2 -1 -1 -1 -1 -1
4 4 4 2 1 1 1 1 1 1 0 0 1 2 3 3 3 3 2 1 -1 -0 -1 -1 -1 -1 -1 -1 -1 -1 -1 -1 -1 -0 0 0 -0 -1 -1 -1 -1 -1 -1
5 5 3 2 2 2 2 2 2 2 2 2 1 1 1 2 4 3 4 3 2 0 0 -0 -1 -1 -1 -1 -1 -1 -1 -1 -1 -0 0 -0 -0 -2 -2 -2 -1 -1 -1
7 6 6 4 3 3 3 3 3 3 3 3 2 2 2 2 2 2 2 4 4 3 1 0 1 0 -1 -1 -1 -1 -1 -0 -0 -0 0 -0 1 -2 -2 -2 -1 -1 -1
8 8 7 6 5 5 4 4 4 4 4 4 3 3 3 3 3 2 2 2 1 4 4 2 1 1 0 -1 -1 -1 -0 1 0 -0 0 0 -0 -2 -2 -2 -1 -1 -1
8 8 8 8 7 6 5 6 5 5 5 4 4 4 4 4 4 4 3 3 2 2 4 5 4 3 1 -0 -1 -0 0 1 -0 -0 -0 0 -1 -2 -2 -2 -2 -1 -1
9 8 9 9 8 9 8 7 7 6 6 5 5 5 5 5 5 5 5 4 3 3 2 2 4 5 4 2 1 1 1 2 1 -0 -0 -0 -1 -2 -2 -2 -2 -1 -1
9 9 9 9 9 9 9 8 6 6 6 6 6 6 6 7 7 7 5 5 4 4 3 3 2 2 4 4 3 2 2 0 0 -0 -0 0 -1 -2 -2 -2 -2 -1 -1
10 10 10 10 10 9 9 9 9 8 9 9 8 9 8 8 8 6 6 4 5 4 4 3 2 1 1 4 3 2 1 0 -0 -0 -0 0 -1 -2 -2 -2 -2 -1 -1
9 10 10 10 10 10 10 10 10 10 10 9 9 9 9 9 8 8 8 7 7 6 6 6 5 5 4 3 3 5 2 0 -0 -0 0 1 -1 -2 -2 -2 -2 -2 -1
10 10 10 11 11 11 11 11 11 10 10 10 10 9 10 10 10 9 9 8 8 7 7 7 6 6 5 4 4 3 4 3 1 -0 0 3 1 -1 -2 -2 -2 -2 -2
10 10 11 11 11 11 11 11 11 11 11 11 11 10 10 11 11 10 9 9 8 8 8 8 7 7 6 5 5 4 3 2 3 1 0 3 2 -0 -1 -2 -2 -2 -2
9 11 11 11 12 12 12 12 12 12 12 11 11 11 10 11 11 11 10 10 9 8 8 8 8 8 7 6 6 5 4 3 2 1 1 0 2 1 -1 -1 -2 -2 -2
10 10 11 11 12 12 13 13 13 12 12 12 12 11 11 10 11 11 11 11 10 9 9 9 8 8 8 7 7 6 5 4 3 1 0 -0 -0 2 1 -1 -1 -1 -1
10 11 11 11 12 13 13 13 13 13 13 13 12 12 11 11 11 11 11 11 10 9 9 9 9 8 8 8 7 7 6 5 4 2 0 -0 -0 -0 1 1 -0 -1 -1
11 11 12 12 13 13 13 13 13 13 13 13 13 13 12 11 11 12 11 11 10 9 9 8 9 9 9 8 7 7 7 6 5 4 2 1 1 -0 -0 1 2 1 -0
12 12 12 13 13 13 13 13 14 13 13 13 13 13 12 12 11 11 11 10 9 10 9 9 8 7 8 8 8 8 7 6 6 5 4 3 3 2 1 1 -0 2 2
13 13 13 13 14 14 15 16 15 16 15 14 13 12 11 10 10 11 10 10 10 10 10 9 8 8 8 7 8 8 7 6 6 5 5 4 5 4 5 3 2 0 1
13 13 13 13 14 15 15 16 15 15 13 13 12 11 11 11 10 11 11 11 10 10 10 9 8 9 8 8 9 9 10 8 6 5 4 5 5 6 6 6 5 4 1
14 14 14 14 14 15 14 14 13 13 13 13 12 12 12 11 11 10 11 11 10 10 9 8 7 8 9 8 7 8 10 10 8 5 5 6 7 8 8 9 8 8 8
15 15 15 15 15 14 14 14 15 15 15 14 14 13 13 12 11 11 10 10 10 9 9 8 7 8 8 9 7 6 6 7 9 9 7 8 10 10 11 11 11 10 10
15 15 16 15 15 14 14 14 15 15 15 14 14 14 13 13 12 11 11 11 10 10 10 9 9 9 8 9 9 8 8 7 7 7 9 7 10 11 11 11 12 11 12
15 16 15 15 15 14 15 15 15 16 16 16 15 15 14 14 13 12 11 11 10 10 9 8 8 7 8 8 8 8 8 8 8 8 8 7 7 9 12 11 12 12 12